GW3137 Weather Reports


time (UTC)temp
C
wind
direction
speed
KPH
gust
KPH
rain 1hr
cm
rain 24hr
cm
rain mn
cm
humidity
%
barometer
mb
20260510030204 19 40 0.0 4.8 0.00 0.00 0.00 58 1015.8
20260510023704 20 333 1.6 4.8 0.00 0.00 0.00 54 1016.0
20260510023205 20 283 1.6 4.8 0.00 0.00 0.00 54 1016.0
20260510020705 21 0 1.6 4.8 0.00 0.00 0.00 53 1016.2
20260510020204 21 15 3.2 4.8 0.00 0.00 0.00 52 1016.2
20260510013704 21 8 3.2 8.0 0.00 0.00 0.00 53 1016.7
20260510013205 21 20 0.0 8.0 0.00 0.00 0.00 52 1016.7
20260510010704 21 344 1.6 3.2 0.00 0.00 0.00 52 1016.8
20260510010204 21 340 3.2 9.7 0.00 0.00 0.00 52 1016.8
20260510003704 21 342 3.2 9.7 0.00 0.00 0.00 52 1017.1
20260510003203 21 322 1.6 12.9 0.00 0.00 0.00 51 1017.2
20260510000703 21 338 4.8 14.5 0.00 0.00 0.00 51 1017.5
20260509233703 21 9 4.8 12.9 0.00 0.00 0.00 51 1017.7
20260509233205 21 0 3.2 14.5 0.00 0.00 0.00 50 1017.7
20260509230704 22 267 3.2 8.0 0.00 0.00 0.00 49 1018.0
20260509230204 21 201 1.6 16.1 0.00 0.00 0.00 49 1018.3
20260509223704 21 287 3.2 19.3 0.00 0.00 0.00 52 1018.5
20260509223204 20 293 4.8 16.1 0.00 0.00 0.00 53 1018.6
20260509220704 21 320 4.8 14.5 0.00 0.00 0.00 52 1018.6
20260509220204 21 274 3.2 12.9 0.00 0.00 0.00 52 1018.7
20260509213704 21 277 4.8 14.5 0.00 0.00 0.00 52 1018.8
20260509213205 21 292 4.8 12.9 0.00 0.00 0.00 51 1018.8
20260509210203 21 354 4.8 11.3 0.00 0.00 0.00 53 1019.0
20260509203703 21 304 4.8 12.9 0.00 0.00 0.00 54 1019.2
20260509203203 20 288 3.2 12.9 0.00 0.00 0.00 54 1019.2
20260509200705 20 336 3.2 8.0 0.00 0.00 0.00 56 1019.7
20260509200204 19 292 8.0 16.1 0.00 0.00 0.00 55 1019.7
20260509193704 20 333 3.2 12.9 0.00 0.00 0.00 56 1020.1
20260509193204 19 286 4.8 14.5 0.00 0.00 0.00 58 1020.2
20260509190704 18 29 4.8 11.3 0.00 0.00 0.00 59 1020.4
20260509183704 18 303 3.2 4.8 0.00 0.00 0.00 61 1020.6
20260509183204 18 19 3.2 9.7 0.00 0.00 0.00 62 1020.6
20260509180704 17 4 3.2 11.3 0.00 0.00 0.00 64 1020.9
20260509180205 17 25 1.6 8.0 0.00 0.00 0.00 64 1020.8
20260509173704 16 322 4.8 9.7 0.00 0.00 0.00 68 1021.0
20260509173203 16 293 1.6 9.7 0.00 0.00 0.00 68 1021.1
20260509170704 15 303 3.2 4.8 0.00 0.00 0.00 72 1021.2
20260509170204 15 308 3.2 4.8 0.00 0.00 0.00 73 1021.2
20260509163704 14 285 3.2 11.3 0.00 0.00 0.00 76 1021.5
20260509163204 14 288 1.6 8.0 0.00 0.00 0.00 76 1021.5
20260509160704 13 295 3.2 4.8 0.00 0.00 0.00 79 1021.7
20260509160204 13 355 1.6 4.8 0.00 0.00 0.00 80 1021.7
20260509153704 13 298 3.2 4.8 0.00 0.00 0.00 82 1021.9
20260509153205 12 293 1.6 4.8 0.00 0.00 0.00 83 1021.9
20260509150704 12 158 0.0 3.2 0.00 0.00 0.00 84 1022.1
20260509150203 12 265 0.0 4.8 0.00 0.00 0.00 84 1022.1
20260509143703 12 60 1.6 3.2 0.00 0.00 0.00 86 1022.2
20260509143204 12 111 0.0 4.8 0.00 0.00 0.00 86 1022.3
20260509140703 11 91 0.0 0.0 0.00 0.00 0.00 89 1022.4
20260509140203 11 91 0.0 0.0 0.00 0.00 0.00 89 1022.4
20260509133703 10 98 0.0 0.0 0.00 0.00 0.00 89 1022.4
20260509133204 10 98 0.0 0.0 0.00 0.00 0.00 89 1022.4
20260509130704 10 98 0.0 1.6 0.00 0.00 0.00 89 1022.3
20260509130204 10 98 1.6 3.2 0.00 0.00 0.00 89 1022.3
20260509123704 10 98 0.0 0.0 0.00 0.00 0.00 89 1022.2
20260509123203 10 98 0.0 0.0 0.00 0.00 0.00 90 1022.2
20260509120704 10 98 0.0 0.0 0.00 0.00 0.00 88 1022.4
20260509120204 10 98 0.0 0.0 0.00 0.00 0.00 89 1022.4
20260509113704 10 98 0.0 0.0 0.00 0.00 0.00 87 1022.5
20260509113204 10 98 0.0 0.0 0.00 0.00 0.00 87 1022.5
20260509110704 11 98 0.0 0.0 0.00 0.00 0.00 86 1022.7
20260509103704 12 235 0.0 0.0 0.00 0.00 0.00 84 1022.7
20260509103203 12 235 0.0 3.2 0.00 0.00 0.00 83 1022.7
20260509100705 12 260 0.0 1.6 0.00 0.00 0.00 83 1022.8
20260509100204 12 260 0.0 3.2 0.00 0.00 0.00 83 1022.9
20260509093204 12 260 0.0 4.8 0.00 0.00 0.00 82 1023.0
20260509090704 12 260 3.2 8.0 0.00 0.00 0.00 81 1023.2
20260509090204 12 263 3.2 8.0 0.00 0.00 0.00 81 1023.3
20260509083705 12 278 1.6 4.8 0.00 0.00 0.00 81 1023.3
20260509083204 12 183 1.6 9.7 0.00 0.00 0.00 81 1023.2
20260509080704 13 176 1.6 8.0 0.00 0.00 0.00 80 1023.2
20260509080204 12 273 3.2 9.7 0.00 0.00 0.00 80 1023.3
20260509073704 12 179 4.8 12.9 0.00 0.00 0.00 79 1023.1
20260509073204 12 186 3.2 8.0 0.00 0.00 0.00 79 1023.1
20260509070704 12 117 1.6 4.8 0.00 0.00 0.00 80 1023.0
20260509070204 12 117 1.6 4.8 0.00 0.00 0.00 80 1023.0
20260509063705 12 143 0.0 1.6 0.00 0.00 0.00 80 1022.9
20260509060704 12 143 1.6 3.2 0.00 0.00 0.00 78 1022.8
20260509060204 12 135 0.0 3.2 0.00 0.00 0.00 78 1022.8
20260509053704 13 182 1.6 4.8 0.00 0.00 0.00 76 1022.7
20260509053204 13 234 1.6 8.0 0.00 0.00 0.00 76 1022.7
20260509050704 13 213 3.2 4.8 0.00 0.00 0.00 74 1022.6
20260509050204 13 163 1.6 4.8 0.00 0.00 0.00 74 1022.6
20260509043704 13 244 1.6 4.8 0.00 0.00 0.00 73 1022.5
20260509033704 15 185 1.6 4.8 0.00 0.00 0.00 67 1021.9
20260509033204 15 189 1.6 9.7 0.00 0.00 0.00 66 1021.8